sat.trackr.live / text

‹ back to catalog

2024-018C

NORAD 58851 · 2024-018C

PAYLOAD ACTIVE UNKNOWN

§ Identity

Operator
Country
IRAN
Launch date
2024-01-28
Launch site
SEMLS
Launch vehicle
Mass (kg)
RCS (m²)

External: N2YO · Heavens-Above · Gunter

§ Orbital elements

Epoch: 2026-05-25T04:09:51.976800Z

Period
99.94 min
Inclination
58.6835°
Eccentricity
0.0430557
Mean motion
14.40933971 rev/d
Perigee alt
448.3 km
Apogee alt
1,062.6 km
Semi-major
7,133.6 km
B*
2.7319e-4
RAAN
304.1999°
Arg perigee
81.1954°
Mean anomaly
283.7564°
Rev number
12,197

§ Raw data

2024-018C1 58851U 24018C   26145.17351825  .00002469  00000+0  27319-3 0  99972 58851  58.6835 304.1999 0430557  81.1954 283.7564 14.40933971121977

JSON: /api/v1/satellites/58851 · /tle

For live sub-satellite position, see the globe view (requires WebGL).

§ Visibility from observer

Set your observer location to see the next 7 days of passes ≥ 10°. The values pass through the URL so the page stays shareable.

No JS? Fill the form by hand. The geolocation button needs JavaScript.